FREGAT R/B, 44116

Orbit data source: Space-Track

FREGAT R/B, 44116 is space debris originally from a launch on Thu, 04 Apr 2019 UTC launched from the French Guiana (FRGUI). Debris objects in space refer to the collection of defunct objects orbiting the Earth. Examples of debris include non-operational satellites, rocket bodies, and fragments generated from explosions, collisions, or faulty payload assembly.

Loading next visibility...
Identifier
44116, 2019-020E
Orbit
Active
Country
Flag of CISCIS
Related business
Manufacturer
Lavochkin
Mission
Spacecraft
Bus & Motor
FREGAT, Unknown motor
Mass
1,050 kg wet, 1,050 kg dry
Launch date (UTC)
2019-04-04 (7 years ago)
Launch vehicle
Unknown
Launch site
French Guiana (FRGUI)
Object type
Payload
Rocket body
Debris
Shape & HBR
Irr, 1.6 m
Radar Cross Section
11.055 m², Large (>1 m²)

Expand to show TLE details & history
Last TLE update: 11 hours ago

TLE from 11 hours ago
0 FREGAT R/B
1 44116U 19020E   26037.90460514 -.00000020  00000-0  00000+0 0  9997
2 44116   0.0379 257.7184 0008320 126.5398 335.7750  5.21008175129717
Epoch: 2026-02-06T21:42Z
TLE epoch observation values (Epoch: 2026-02-06T21:42:37.884Z)
Latitude
0.03342°
Longitude
-102.6936°
Altitude
7,664.896 km
Speed
5.331 km/s
True Right ascension
00h 00m 00s
True Declination
0° 01' 60"
Sunlit
Object was in daylight at epoch
Visualization orbit readout
Latitude
Unknown
Longitude
Unknown
Altitude
Unknown
Speed
Unknown
Apparent Right ascension
Unknown
Apparent Declination
Unknown
Sunlit
N/A
Visualization observer readout
Local Sidereal Time
10:40:52
Azimuth
Unknown
Elevation
Unknown
Doppler factor
Unknown
Orbital elements
Apogee altitude
7,691.96 km
Perigee altitude
7,668.567 km
Semi-major axis
14,058.4 km
Eccentricity
0.00083
Inclination
0.0379°
RAAN
257.7184°
Arg. of periapsis
126.5398°
True anomaly
335.73584°
Mean anomaly
335.775°
Eccentric anomaly
335.75543°
Mean motion
1.30208 °/min
Orbital period
276.48 mins
BSTAR
0
Loading maneuver chart data...
Computing Atmospheric mass density...
Loading historical data...
Loading historical data...
Loading historical data...
Loading historical data...
Loading historical data...
Loading historical data...
Loading historical data...
Other satellites on launch #20 in the year 2019 (2019-04-04 UTC)

Documentation

Showing up to 5 results
|